Change the Weather History Date:

Tuesday, March 19, 2013

  Actual Average Record
Temperature  
Mean Temperature 39 °F -  
Max Temperature 50 °F 61 °F 83 °F (1982)
Min Temperature 28 °F 36 °F 18 °F (1967)
Degree Days  
Heating Degree Days 26    
Moisture  
Dew Point 26 °F    
Average Humidity 61    
Maximum Humidity 100    
Minimum Humidity 22    
Precipitation  
Precipitation 0.00 in - - ()
Sea Level Pressure  
Sea Level Pressure 30.14 in    
Wind  
Wind Speed 8 mph (ESE)    
Max Wind Speed 16 mph    
Max Gust Speed 24 mph    
Visibility 10 miles    
Events      
Averages and records for this station are not official NWS values.
T = Trace of Precipitation, MM = Missing Value Source: NWS Daily Summary

Daily Weather History Graph

Daily Weather History Graph

Search for Another Location

Airport or City:

Trip Planner

Search our weather history database for the weather conditions in past years. The results will help you decide how hot, cold, wet, or windy it might be!

Date:

Astronomy

Mar. 19, 2013 Rise Set
Actual Time 6:44 AM CDT 6:50 PM CDT
Civil Twilight 6:18 AM CDT 7:16 PM CDT
Nautical Twilight 5:48 AM CDT 7:46 PM CDT
Astronomical Twilight 5:17 AM CDT 8:17 PM CDT
Moon 11:41 AM CDT (3/19) 1:28 AM CDT (3/19)
Length of Visible Light 12h 58m
Length of Day
12h 06m
Waxing Crescent, 50% of the Moon is Illuminated
Mar 19
Waxing Crescent
Mar 19
First Quarter
Mar 27
Full
Apr 2
Last Quarter
Apr 10
New

Hourly Weather History & Observations

Time (CDT) Temp. Windchill Dew Point Humidity Pressure Visibility Wind Dir Wind Speed Gust Speed Precip Events Conditions
12:21 AM 42.8 °F 37.5 °F 35.6 °F 76% 29.98 in 10.0 mi East 9.2 mph - N/A   Scattered Clouds
12:56 AM 41.0 °F 33.9 °F 34.9 °F 79% 30.02 in 10.0 mi East 12.7 mph - N/A   Partly Cloudy
1:56 AM 36.0 °F 32.1 °F 32.9 °F 89% 30.04 in 10.0 mi ESE 4.6 mph - N/A   Clear
2:56 AM 36.0 °F 31.1 °F 32.9 °F 89% 30.05 in 10.0 mi NE 5.8 mph - N/A   Clear
3:56 AM 32.9 °F - 32.0 °F 96% 30.06 in 10.0 mi Calm Calm - N/A   Clear
4:56 AM 30.0 °F - 30.0 °F 100% 30.06 in 7.0 mi Calm Calm - N/A   Clear
5:56 AM 28.0 °F - 28.0 °F 100% 30.08 in 7.0 mi Calm Calm - N/A   Clear
6:56 AM 32.9 °F 27.5 °F 32.0 °F 96% 30.09 in 9.0 mi NE 5.8 mph - N/A   Clear
7:56 AM 37.9 °F 33.5 °F 34.9 °F 89% 30.11 in 10.0 mi ENE 5.8 mph - N/A   Clear
8:56 AM 41.9 °F 34.6 °F 36.9 °F 82% 30.13 in 10.0 mi ESE 13.8 mph 18.4 mph N/A   Partly Cloudy
9:56 AM 43.9 °F 37.5 °F 32.9 °F 65% 30.14 in 10.0 mi ESE 12.7 mph - N/A   Clear
10:56 AM 45.9 °F 41.2 °F 32.0 °F 58% 30.15 in 10.0 mi ESE 9.2 mph - N/A   Clear
11:56 AM 47.8 °F - 27.1 °F 45% 30.16 in 10.0 mi East 12.7 mph - N/A   Clear
12:56 PM 50.0 °F - 23.0 °F 35% 30.17 in 10.0 mi East 16.1 mph - N/A   Clear
1:56 PM 50.9 °F - 18.1 °F 27% 30.17 in 10.0 mi SE 12.7 mph 20.7 mph N/A   Clear
2:56 PM 50.9 °F - 16.2 °F 25% 30.18 in 10.0 mi SE 15.0 mph 24.2 mph N/A   Clear
3:56 PM 50.9 °F - 16.2 °F 25% 30.18 in 10.0 mi ESE 12.7 mph 19.6 mph N/A   Clear
4:56 PM 50.0 °F - 12.0 °F 22% 30.19 in 10.0 mi ESE 10.4 mph - N/A   Clear
5:56 PM 46.9 °F - 13.1 °F 26% 30.19 in 10.0 mi SSE 8.1 mph - N/A   Clear
6:56 PM 43.9 °F 39.3 °F 15.1 °F 31% 30.19 in 10.0 mi SE 8.1 mph - N/A   Clear
7:56 PM 39.9 °F 35.8 °F 17.1 °F 40% 30.21 in 10.0 mi SE 5.8 mph - N/A   Mostly Cloudy
8:56 PM 37.9 °F 34.4 °F 21.0 °F 51% 30.21 in 10.0 mi SE 4.6 mph - N/A   Partly Cloudy
9:56 PM 36.9 °F 33.1 °F 20.1 °F 51% 30.22 in 10.0 mi SE 4.6 mph - N/A   Mostly Cloudy
10:56 PM 34.0 °F 29.8 °F 22.1 °F 62% 30.21 in 10.0 mi ESE 4.6 mph - N/A   Scattered Clouds
11:56 PM 29.1 °F - 23.0 °F 78% 30.22 in 10.0 mi Calm Calm - N/A   Partly Cloudy